Regional Weather Roundup
Issued by NWS

Home | Current Version | Previous Version | Text Only | Print | Product List | Glossary Off
Versions: 1 2 3 4 5 6 7 8 9 10 11 12 13 14 15 16 17 18 19 20 21 22 23 24 25 26 27 28 29 30 31 32 33 34 35 36 37 38 39 40 41 42 43 44 45 46 47 48 49 50

166
ASUS44 KLIX 231605
RWRLA
LOUISIANA WEATHER ROUNDUP
NATIONAL WEATHER SERVICE NEW ORLEANS LA
1100 AM CDT WED APR 23 2014

NOTE: "FAIR" INDICATES FEW OR NO CLOUDS BELOW 12,000 FEET WITH NO
      SIGNIFICANT WEATHER AND/OR OBSTRUCTIONS TO VISIBILITY.
      SKY/WX - SKY CONDITION AND SIGNIFICANT WEATHER.
      TMP - AIR TEMPERATURE.    DP   - DEWPOINT TEMPERATURE.
      RH  - RELATIVE HUMIDITY.  PRES - PRESSURE.
      HX  - HEAT INDEX.         WCI  - WIND CHILL INDEX.

*  THESE STATIONS ARE NOT NWS OR FAA STATIONS AND ARE NOT UNDER
   NWS QUALITY CONTROL.

LAZ040-048-061>063-065-066-069-231700-
SOUTHEAST LOUISIANA

CITY           SKY/WX    TMP DP  RH WIND       PRES   REMARKS
N.O. AUDUBON     N/A     79  64  60 MISG        N/A
N.O. INTL ARPT MOSUNNY   77  63  61 VRB3      30.00S
N.O. LAKEFRONT SUNNY     71  63  75 NW5       30.01R
N.O. DOWNTOWN* FAIR      77  61  57 W3        30.00S
SLIDELL        SUNNY     79  61  53 N5        29.98S
BATON ROUGE    SUNNY     79  58  48 VRB5      30.00S
BOOTHVILLE     SUNNY     74  64  71 CALM      30.01R
BELLE CHASSE   MOSUNNY   77  61  57 CALM      29.99S
BOGALUSA*        N/A     78  59  51 SE5       30.01S
GALLIANO*      SUNNY     78  64  62 N7        30.00S
NEW ROADS*     FAIR      76  58  54 CALM      30.00S
GONZALES*      FAIR      78  61  55 NE3       29.99F
HAMMOND*       SUNNY     81  55  41 E5        30.01S
HOUMA*         SUNNY     79  57  47 NE6       30.00S
PORT FOURCHON* MOSUNNY   77  63  61 E6        30.02S

$$

LAZ041-044-053-054-231700-
SOUTHWEST LOUISIANA

CITY           SKY/WX    TMP DP  RH WIND       PRES   REMARKS
LAKE CHARLES   PTSUNNY   76  67  73 E6        30.00S
LAFAYETTE      MOSUNNY   78  62  57 NE5       30.01R
PATTERSON      SUNNY     79  63  57 E7        30.04R
SALT POINT       N/A     79  63  57 VRB5      29.99S
NEW IBERIA     MOSUNNY   78  61  55 SE5       30.01R
CHENAULT AIRPK PTSUNNY   73  66  78 E5        30.02S

$$

LAZ027-028-231700-
CENTRAL LOUISIANA

CITY           SKY/WX    TMP DP  RH WIND       PRES   REMARKS
FORT POLK      SUNNY     77  60  55 SE7       30.00S
ALEXANDRIA INT SUNNY     78  59  51 SE7       29.99S
ALEXANDRIA     SUNNY     78  59  51 E3        30.01S

$$

LAZ001-002-231700-
NORTHWEST LOUISIANA

CITY           SKY/WX    TMP DP  RH WIND       PRES   REMARKS
SHREVEPORT     SUNNY     78  61  55 S9        29.98F
BARKSDALE AFB  SUNNY     77  61  56 S8        29.99S
DTN SHREVEPORT SUNNY     75  61  61 SE12      29.99S

$$

LAZ014-016-231700-
NORTHEAST LOUISIANA

CITY           SKY/WX    TMP DP  RH WIND       PRES   REMARKS
MONROE         SUNNY     75  52  44 VRB5      30.02F
TALLULAH       SUNNY     75  47  36 NE6       30.02S

$$




USA.gov is the U.S. government's official web portal to all federal, state and local government web resources and services.